This demonstration page uses our WeatherBlox Daily Observations layout. Learn more.

Left ArrowRight Arrow

41.12389, -100.76542

Hourly Observations for December 18, 2016

Temp ( °F °C ) Dew Point ( °F °C ) Humidity (%) Winds ( mph kmh ) Pressure ( in mb ) Visibility ( mi km ) Precip ( " mm )
12:53 am 00:53 Clear -15 -26.1 -19 -28.3 82 82 NW 6 9 30.49 1033 10 16 0.00 0.00
1:53 am 01:53 Clear -15 -26.1 -20 -28.9 77 77 Calm 30.48 1032 10 16 0.00 0.00
2:53 am 02:53 Clear -15 -26.1 -21 -29.4 74 74 NW 3 6 30.49 1033 10 16 0.00 0.00
3:53 am 03:53 Clear -15 -26.1 -21 -29.4 74 74 Calm 30.49 1033 10 16 0.00 0.00
4:53 am 04:53 Clear -14 -25.6 -19 -28.3 78 78 Calm 30.49 1033 10 16 0.00 0.00
5:53 am 05:53 Clear -13 -25 -18 -27.8 78 78 WNW 5 7 30.50 1033 10 16 0.00 0.00
6:53 am 06:53 Clear -14 -25.6 -19 -28.3 78 78 NNW 6 9 30.53 1034 10 16 0.00 0.00
7:53 am 07:53 Clear -13 -25 -19 -28.3 74 74 Calm 30.54 1034 10 16 0.00 0.00
8:53 am 08:53 Sunny -11 -23.9 -17 -27.2 74 74 E 5 7 30.57 1035 10 16 0.00 0.00
9:53 am 09:53 Sunny -1 -18.3 -7 -21.7 75 75 Calm 30.57 1035 10 16 0.00 0.00
10:53 am 10:53 Sunny 7 -13.9 -1 -18.3 70 70 W 5 7 30.56 1035 10 16 0.00 0.00
11:53 am 11:53 Sunny 13 -10.6 1 -17.2 59 59 SW 6 9 30.54 1034 10 16 0.00 0.00
12:53 pm 12:53 Sunny 22 -5.6 2 -16.7 42 42 WSW 14 22 30.50 1033 10 16 0.00 0.00
1:53 pm 13:53 Sunny 26 -3.3 2 -16.7 35 35 SW 14 22 30.47 1032 10 16 0.00 0.00
2:53 pm 14:53 Sunny 29 -1.7 6 -14.4 38 38 W 16 26 30.47 1032 10 16 0.00 0.00
3:53 pm 15:53 Sunny 29 -1.7 7 -13.9 39 39 W 15 24 30.49 1033 10 16 0.00 0.00
4:53 pm 16:53 Sunny 24 -4.4 6 -14.4 46 46 W 10 17 30.52 1033 10 16 0.00 0.00
5:53 pm 17:53 Clear 17 -8.3 4 -15.6 56 56 W 8 13 30.55 1035 10 16 0.00 0.00
6:53 pm 18:53 Clear 14 -10 2 -16.7 58 58 NW 5 7 30.58 1036 10 16 0.00 0.00
7:53 pm 19:53 Clear 12 -11.1 3 -16.1 67 67 Calm 30.59 1036 10 16 0.00 0.00
8:53 pm 20:53 Clear 7 -13.9 -1 -18.3 70 70 Calm 30.62 1037 10 16 0.00 0.00
9:53 pm 21:53 Clear 2 -16.7 -5 -20.6 72 72 Calm 30.61 1037 10 16 0.00 0.00
10:53 pm 22:53 Clear 2 -16.7 -4 -20 76 76 NW 5 7 30.60 1036 10 16 0.00 0.00
11:53 pm 23:53 Clear 0 -17.8 -6 -21.1 76 76 NW 5 7 30.60 1036 10 16 0.00 0.00

Powered by AerisWeather